FW4683 Weather Reports


Display with metric or nautical units.
time (UTC)temp
F
wind
direction
speed
MPH
gust
MPH
rain 1hr
in
rain 24hr
in
rain mn
in
humidity
%
barometer
mb
20260901014511 75 96 0.0 3.0 0.00 0.00 0.00 91 1019.1
20260901014008 74 96 0.0 3.0 0.00 0.00 0.00 92 1019.0
20260901013513 75 96 1.0 3.0 0.00 0.00 0.00 92 1019.0
20260901013023 75 96 0.0 3.0 0.00 0.00 0.00 93 1019.0
20260901012507 75 96 0.0 2.0 0.00 0.00 0.00 93 1019.0
20260901012009 75 96 0.0 3.0 0.00 0.00 0.00 93 1018.8
20260901011514 75 96 0.0 3.0 0.00 0.00 0.00 93 1018.8
20260901011009 75 96 0.0 2.0 0.00 0.00 0.00 92 1018.7
20260901010507 76 96 0.0 2.0 0.00 0.00 0.00 92 1018.5
20260901010008 76 96 0.0 3.0 0.00 0.00 0.00 92 1018.6
20260901005007 76 96 0.0 3.0 0.00 0.00 0.00 91 1018.6
20260901004508 76 96 0.0 2.0 0.00 0.00 0.00 91 1018.4
20260901004006 76 95 0.0 1.0 0.00 0.00 0.00 91 1018.3
20260901003508 76 96 0.0 1.0 0.00 0.00 0.00 90 1018.3
20260901003008 77 96 0.0 1.0 0.00 0.00 0.00 90 1018.2
20260901002507 77 96 0.0 2.0 0.00 0.00 0.00 90 1018.3
20260901002007 77 96 0.0 2.0 0.00 0.00 0.00 89 1018.3
20260901001511 77 96 0.0 1.0 0.00 0.00 0.00 89 1018.2
20260901001006 77 96 0.0 1.0 0.00 0.00 0.00 89 1018.3
20260901000506 78 96 0.0 1.0 0.00 0.00 0.00 88 1018.3
20260901000008 78 96 0.0 1.0 0.00 0.00 0.00 88 1018.4
20260831235005 78 96 0.0 2.0 0.00 0.00 0.00 88 1018.3
20260831234507 78 96 0.0 2.0 0.00 0.00 0.00 87 1018.4
20260831234004 79 96 0.0 2.0 0.00 0.00 0.00 87 1018.2
20260831233504 79 95 0.0 1.0 0.00 0.00 0.00 87 1018.3
20260831233007 79 96 0.0 1.0 0.00 0.00 0.00 86 1018.3
20260831232504 79 96 0.0 1.0 0.00 0.00 0.00 85 1018.4
20260831232004 80 96 0.0 1.0 0.00 0.00 0.00 84 1018.5
20260831231504 81 96 0.0 1.0 0.00 0.00 0.00 84 1018.4
20260831231004 80 96 0.0 1.0 0.00 0.00 0.00 85 1018.4
20260831230503 80 96 0.0 1.0 0.00 0.00 0.00 83 1018.4
20260831230006 80 96 0.0 3.0 0.00 0.00 0.00 82 1018.4
20260831225005 80 96 0.0 3.0 0.00 0.00 0.00 82 1018.3
20260831224506 81 96 0.0 3.0 0.00 0.00 0.00 82 1018.2
20260831224003 81 96 0.0 3.0 0.00 0.00 0.00 80 1018.2
20260831223503 81 96 0.0 4.0 0.00 0.00 0.00 81 1018.3
20260831223003 81 96 0.0 4.0 0.00 0.00 0.00 81 1018.3
20260831222501 81 96 0.0 4.0 0.00 0.00 0.00 81 1018.4
20260831222002 81 96 1.0 7.0 0.00 0.00 0.00 80 1018.4
20260831221604 81 96 5.0 7.0 0.00 0.00 0.00 79 1018.5
20260831221502 81 96 4.0 7.0 0.00 0.00 0.00 78 1018.5
20260831221101 81 96 1.0 7.0 0.00 0.00 0.00 79 1018.5
20260831220600 81 96 3.0 7.0 0.00 0.00 0.00 79 1018.7
20260831220101 81 96 3.0 9.0 0.00 0.00 0.00 80 1018.6
20260831215001 80 96 5.0 9.0 0.00 0.00 0.00 80 1018.8
20260831214501 80 96 4.0 8.0 0.00 0.00 0.00 81 1018.7
20260831214000 79 96 4.0 9.0 0.00 0.00 0.00 81 1018.8
20260831213502 79 96 4.0 10.0 0.00 0.00 0.00 82 1018.8
20260831213003 78 96 4.0 10.0 0.00 0.00 0.00 83 1018.9
20260831212502 78 96 4.0 9.0 0.00 0.00 0.00 84 1018.9
20260831212100 78 96 5.0 9.0 0.00 0.00 0.00 84 1018.8
20260831211502 77 96 5.0 11.0 0.00 0.00 0.00 85 1018.7
20260831211100 77 96 7.0 11.0 0.00 0.00 0.00 85 1018.7
20260831210559 77 96 5.0 8.0 0.00 0.00 0.00 85 1018.8
20260831210114 76 96 5.0 8.0 0.00 0.00 0.00 87 1018.8
20260831205059 76 96 2.0 7.0 0.00 0.00 0.00 86 1019.0
20260831204559 76 96 2.0 7.0 0.00 0.00 0.00 87 1019.0
20260831204058 76 96 1.0 7.0 0.00 0.00 0.00 87 1019.1
20260831203558 76 96 2.0 11.0 0.00 0.00 0.00 87 1019.2
20260831203104 76 96 3.0 11.0 0.00 0.00 0.00 87 1019.3
20260831202557 76 96 1.0 10.0 0.00 0.00 0.00 87 1019.4
20260831202057 76 96 6.0 10.0 0.00 0.00 0.00 87 1019.4
20260831201601 76 96 2.0 12.0 0.00 0.00 0.00 87 1019.5
20260831201057 75 96 6.0 12.0 0.00 0.00 0.00 87 1019.4
20260831200557 76 96 3.0 8.0 0.00 0.00 0.00 87 1019.3
20260831200057 76 96 2.0 7.0 0.00 0.00 0.00 86 1019.2
20260831195102 77 96 7.0 12.0 0.00 0.00 0.00 84 1019.3
20260831194624 78 96 1.0 9.0 0.00 0.00 0.00 82 1019.2
20260831194100 78 96 0.0 6.0 0.00 0.00 0.00 82 1019.1
20260831193600 77 96 0.0 8.0 0.00 0.00 0.00 80 1019.2
20260831193100 76 96 3.0 10.0 0.00 0.00 0.00 81 1019.3
20260831192559 76 96 4.0 10.0 0.00 0.00 0.00 83 1019.4
20260831192058 76 96 3.0 13.0 0.00 0.00 0.00 83 1019.6
20260831191604 78 96 7.0 18.0 0.00 0.00 0.00 80 1019.7
20260831191058 79 96 10.0 20.0 0.00 0.00 0.00 76 1019.6
20260831190559 80 96 10.0 20.0 0.00 0.00 0.00 72 1019.5
20260831190108 83 96 9.0 18.0 0.00 0.00 0.00 70 1019.4
20260831185053 88 96 7.0 17.0 0.00 0.00 0.00 67 1019.2
20260831184557 89 96 4.0 10.0 0.00 0.00 0.00 61 1019.0
20260831184054 90 96 2.0 9.0 0.00 0.00 0.00 59 1019.0
20260831183552 90 96 2.0 9.0 0.00 0.00 0.00 59 1019.1
20260831183152 91 96 2.0 10.0 0.00 0.00 0.00 59 1019.1
20260831182050 90 96 3.0 8.0 0.00 0.00 0.00 60 1019.2
20260831181554 91 96 3.0 8.0 0.00 0.00 0.00 59 1019.3
20260831181049 91 96 1.0 7.0 0.00 0.00 0.00 57 1019.2
20260831180548 90 96 2.0 7.0 0.00 0.00 0.00 59 1019.3
20260831180047 89 96 3.0 9.0 0.00 0.00 0.00 62 1019.3
20260831175048 88 96 2.0 9.0 0.00 0.00 0.00 62 1019.5
20260831174552 89 96 3.0 9.0 0.00 0.00 0.00 60 1019.6
20260831174052 89 96 5.0 9.0 0.00 0.00 0.00 61 1019.5
20260831173649 88 96 2.0 9.0 0.00 0.00 0.00 61 1019.5
20260831173110 89 96 4.0 7.0 0.00 0.00 0.00 61 1019.6
20260831172547 89 96 4.0 8.0 0.00 0.00 0.00 61 1019.7
20260831172046 90 96 1.0 7.0 0.00 0.00 0.00 60 1019.8
20260831171547 90 96 1.0 7.0 0.00 0.00 0.00 60 1019.8
20260831171046 90 96 1.0 8.0 0.00 0.00 0.00 58 1019.8
20260831170546 91 96 2.0 7.0 0.00 0.00 0.00 58 1019.9
20260831170046 91 96 1.0 4.0 0.00 0.00 0.00 58 1019.9
20260831165043 89 96 1.0 7.0 0.00 0.00 0.00 58 1019.9
20260831164556 89 96 1.0 7.0 0.00 0.00 0.00 55 1019.9
20260831164043 89 96 0.0 7.0 0.00 0.00 0.00 57 1020.0
20260831163541 88 96 1.0 7.0 0.00 0.00 0.00 59 1020.1
20260831163041 88 96 1.0 6.0 0.00 0.00 0.00 61 1020.1
20260831162542 88 96 3.0 6.0 0.00 0.00 0.00 61 1020.2
20260831162043 88 96 0.0 4.0 0.00 0.00 0.00 62 1020.2
20260831161538 88 96 0.0 4.0 0.00 0.00 0.00 63 1020.3
20260831161038 88 96 1.0 4.0 0.00 0.00 0.00 65 1020.3
20260831160538 87 96 0.0 4.0 0.00 0.00 0.00 66 1020.4
20260831160037 86 96 0.0 3.0 0.00 0.00 0.00 68 1020.3
20260831155038 85 96 0.0 4.0 0.00 0.00 0.00 69 1020.3
20260831154537 85 96 1.0 4.0 0.00 0.00 0.00 70 1020.3
20260831154034 84 96 0.0 4.0 0.00 0.00 0.00 71 1020.4
20260831153534 84 96 1.0 4.0 0.00 0.00 0.00 72 1020.4
20260831153041 84 96 1.0 3.0 0.00 0.00 0.00 71 1020.5
20260831152533 84 96 0.0 6.0 0.00 0.00 0.00 72 1020.5
20260831152033 83 96 0.0 6.0 0.00 0.00 0.00 72 1020.5
20260831151532 83 96 1.0 4.0 0.00 0.00 0.00 73 1020.5
20260831151031 82 96 0.0 3.0 0.00 0.00 0.00 73 1020.5
20260831150530 82 96 0.0 3.0 0.00 0.00 0.00 73 1020.6
20260831150034 82 96 0.0 2.0 0.00 0.00 0.00 73 1020.6
20260831145033 80 96 0.0 4.0 0.00 0.00 0.00 75 1020.7
20260831144526 80 96 0.0 6.0 0.00 0.00 0.00 76 1020.7
20260831144026 79 96 0.0 6.0 0.00 0.00 0.00 77 1020.7
20260831143525 79 96 0.0 4.0 0.00 0.00 0.00 77 1020.7
20260831143024 78 96 1.0 6.0 0.00 0.00 0.00 78 1020.7
20260831142523 78 96 2.0 6.0 0.00 0.00 0.00 79 1020.7
20260831142023 78 96 2.0 6.0 0.00 0.00 0.00 79 1020.6
20260831141521 77 96 2.0 6.0 0.00 0.00 0.00 79 1020.6
20260831141019 77 96 1.0 7.0 0.00 0.00 0.00 79 1020.6
20260831140519 77 96 4.0 7.0 0.00 0.00 0.00 79 1020.6
20260831140018 76 96 0.0 4.0 0.00 0.00 0.00 80 1020.7
20260831135017 76 96 0.0 4.0 0.00 0.00 0.00 81 1020.6
20260831134519 75 96 1.0 7.0 0.00 0.00 0.00 83 1020.6
20260831134014 75 96 3.0 7.0 0.00 0.00 0.00 83 1020.7
20260831133513 74 96 2.0 7.0 0.00 0.00 0.00 85 1020.8
20260831133023 74 96 2.0 7.0 0.00 0.00 0.00 86 1020.8
20260831132513 74 96 0.0 7.0 0.00 0.00 0.00 87 1020.7
20260831132010 73 96 1.0 6.0 0.00 0.00 0.00 87 1020.8
20260831131509 73 96 2.0 6.0 0.00 0.00 0.00 89 1020.8
20260831131008 73 96 1.0 4.0 0.00 0.00 0.00 88 1020.8
20260831130506 72 96 0.0 4.0 0.00 0.00 0.00 89 1020.8
20260831130007 72 96 1.0 6.0 0.00 0.00 0.00 89 1020.8
20260831125010 72 96 0.0 1.0 0.00 0.00 0.00 90 1020.8
20260831124528 71 96 0.0 1.0 0.00 0.00 0.00 90 1020.8
20260831124011 71 96 0.0 1.0 0.00 0.00 0.00 90 1020.7
20260831123506 71 96 0.0 2.0 0.00 0.00 0.00 90 1020.6
20260831123005 70 96 0.0 2.0 0.00 0.00 0.00 93 1020.5
20260831122507 70 96 0.0 3.0 0.00 0.00 0.00 93 1020.5
20260831122005 69 96 0.0 4.0 0.00 0.00 0.00 93 1020.5
20260831121505 69 96 2.0 4.0 0.00 0.00 0.00 93 1020.5
20260831121005 69 96 0.0 6.0 0.00 0.00 0.00 94 1020.4
20260831120505 69 96 1.0 6.0 0.00 0.00 0.00 95 1020.5
20260831120008 68 96 1.0 4.0 0.00 0.00 0.00 95 1020.5
20260831115003 68 96 0.0 3.0 0.00 0.00 0.00 95 1020.4
20260831114503 68 96 1.0 3.0 0.00 0.00 0.00 95 1020.5
20260831114004 68 96 0.0 3.0 0.00 0.00 0.00 96 1020.5
20260831113502 68 96 0.0 1.0 0.00 0.00 0.00 96 1020.5
20260831113005 67 96 0.0 1.0 0.00 0.00 0.00 96 1020.5
20260831112500 67 96 0.0 0.0 0.00 0.00 0.00 96 1020.5
20260831112000 67 96 0.0 0.0 0.00 0.00 0.00 96 1020.3
20260831111622 67 96 0.0 3.0 0.00 0.00 0.00 96 1020.2
20260831111101 68 96 1.0 3.0 0.00 0.00 0.00 96 1020.2
20260831110602 68 96 0.0 2.0 0.00 0.00 0.00 96 1020.2
20260831110100 68 96 0.0 2.0 0.00 0.00 0.00 96 1020.2
20260831105100 68 96 0.0 1.0 0.00 0.00 0.00 95 1020.1
20260831104609 68 96 0.0 2.0 0.00 0.00 0.00 95 1020.1
20260831104059 68 96 0.0 2.0 0.00 0.00 0.00 95 1020.1
20260831103603 68 96 0.0 2.0 0.00 0.00 0.00 95 1020.0
20260831103106 68 96 0.0 2.0 0.00 0.00 0.00 96 1020.0
20260831102602 68 96 0.0 1.0 0.00 0.00 0.00 96 1020.0
20260831102059 68 96 0.0 1.0 0.00 0.00 0.00 96 1019.9
20260831101601 68 96 0.0 2.0 0.00 0.00 0.00 96 1019.8
20260831101059 68 96 0.0 2.0 0.00 0.00 0.00 96 1019.8
20260831100558 68 96 0.0 1.0 0.00 0.00 0.00 96 1019.8
20260831100058 68 96 0.0 3.0 0.00 0.00 0.00 96 1019.8
20260831095102 68 96 0.0 3.0 0.00 0.00 0.00 96 1019.8
20260831094609 68 96 1.0 4.0 0.00 0.00 0.00 96 1019.8
20260831094059 68 96 1.0 4.0 0.00 0.00 0.00 96 1019.7
20260831093558 68 96 0.0 0.0 0.00 0.00 0.00 96 1019.7
20260831093035 68 96 0.0 0.0 0.00 0.00 0.00 96 1019.7
20260831092559 68 96 0.0 0.0 0.00 0.00 0.00 95 1019.7
20260831092057 68 96 0.0 0.0 0.00 0.00 0.00 95 1019.7
20260831091600 68 96 0.0 0.0 0.00 0.00 0.00 95 1019.7
20260831091057 69 96 0.0 0.0 0.00 0.00 0.00 95 1019.7
20260831090555 69 96 0.0 1.0 0.00 0.00 0.00 95 1019.6
20260831085056 69 96 0.0 2.0 0.00 0.00 0.00 95 1019.6
20260831084555 69 96 0.0 2.0 0.00 0.00 0.00 96 1019.6
20260831084055 69 96 0.0 1.0 0.00 0.00 0.00 96 1019.5
20260831083557 69 96 0.0 1.0 0.00 0.00 0.00 96 1019.5
20260831083102 69 96 0.0 1.0 0.00 0.00 0.00 96 1019.5
20260831082555 69 96 0.0 2.0 0.00 0.00 0.00 96 1019.5
20260831082054 69 96 0.0 3.0 0.00 0.00 0.00 96 1019.4
20260831081600 69 96 1.0 3.0 0.00 0.00 0.00 96 1019.4
20260831081053 69 96 0.0 3.0 0.00 0.00 0.00 96 1019.5
20260831080554 69 96 0.0 3.0 0.00 0.00 0.00 96 1019.5
20260831080053 69 96 0.0 1.0 0.00 0.00 0.00 96 1019.4
20260831075052 69 96 0.0 1.0 0.00 0.00 0.00 96 1019.5
20260831074551 69 96 0.0 3.0 0.00 0.00 0.00 95 1019.6
20260831074051 69 96 1.0 3.0 0.00 0.00 0.00 95 1019.6
20260831073553 69 96 0.0 4.0 0.00 0.00 0.00 95 1019.6
20260831073057 69 96 0.0 4.0 0.00 0.00 0.00 96 1019.7
20260831072550 69 96 0.0 3.0 0.00 0.00 0.00 96 1019.7
20260831072051 69 96 1.0 4.0 0.00 0.00 0.00 96 1019.6
20260831071551 69 96 1.0 4.0 0.00 0.00 0.00 96 1019.7
20260831071051 69 96 0.0 1.0 0.00 0.00 0.00 96 1019.6
20260831070549 69 96 0.0 3.0 0.00 0.00 0.00 96 1019.6
20260831070053 70 96 0.0 3.0 0.00 0.00 0.00 96 1019.7
20260831065047 70 96 1.0 3.0 0.00 0.00 0.00 95 1019.7
20260831064547 70 96 0.0 2.0 0.00 0.00 0.00 95 1019.8
20260831064046 70 96 0.0 1.0 0.00 0.00 0.00 95 1019.8
20260831063546 70 96 0.0 1.0 0.00 0.00 0.00 95 1019.8
20260831063045 70 96 0.0 1.0 0.00 0.00 0.00 95 1019.7
20260831062544 71 96 0.0 1.0 0.00 0.00 0.00 94 1019.8
20260831062046 71 96 0.0 0.0 0.00 0.00 0.00 95 1019.9
20260831061550 70 96 0.0 1.0 0.00 0.00 0.00 95 1020.0
20260831061042 70 96 0.0 1.0 0.00 0.00 0.00 95 1019.9
20260831060542 71 96 0.0 0.0 0.00 0.00 0.00 95 1020.0
20260831060044 71 96 0.0 0.0 0.00 0.00 0.00 95 1020.1
20260831055042 71 96 0.0 0.0 0.00 0.00 0.00 95 1020.1
20260831054541 71 96 0.0 0.0 0.00 0.00 0.00 95 1020.1
20260831054042 71 96 0.0 0.0 0.00 0.00 0.00 95 1020.2
20260831053541 71 96 0.0 1.0 0.00 0.00 0.00 95 1020.3
20260831053040 71 96 0.0 1.0 0.00 0.00 0.00 95 1020.3
20260831052540 71 96 0.0 2.0 0.00 0.00 0.00 94 1020.3
20260831052037 72 96 0.0 2.0 0.00 0.00 0.00 95 1020.4
20260831051537 72 96 0.0 2.0 0.00 0.00 0.00 95 1020.4
20260831051035 72 96 0.0 1.0 0.00 0.00 0.00 94 1020.4
20260831050538 72 96 0.0 1.0 0.00 0.00 0.00 94 1020.4
20260831050053 72 96 0.0 1.0 0.00 0.00 0.00 94 1020.4
20260831045035 72 96 0.0 2.0 0.00 0.00 0.00 95 1020.3
20260831044546 72 96 0.0 1.0 0.00 0.00 0.00 95 1020.3
20260831044035 72 96 0.0 1.0 0.00 0.00 0.00 94 1020.2
20260831043535 72 96 0.0 1.0 0.00 0.00 0.00 94 1020.2
20260831043035 72 96 0.0 1.0 0.00 0.00 0.00 94 1020.2
20260831042539 72 96 0.0 1.0 0.00 0.00 0.00 93 1020.3
20260831042035 72 96 0.0 1.0 0.00 0.00 0.00 94 1020.3
20260831041536 72 96 0.0 1.0 0.00 1.14 0.00 93 1020.4
20260831041035 72 96 0.0 1.0 0.00 1.14 0.00 94 1020.4
20260831040535 73 96 0.0 1.0 0.00 1.14 0.00 94 1020.4
20260831040035 73 96 0.0 1.0 0.00 1.14 0.00 93 1020.3
20260831035035 73 96 0.0 0.0 0.00 1.14 0.00 92 1020.3
20260831034534 74 96 0.0 1.0 0.00 1.14 0.00 92 1020.3
20260831034034 73 96 0.0 0.0 0.00 1.14 0.00 93 1020.2
20260831033534 73 96 0.0 0.0 0.00 1.14 0.00 93 1020.3
20260831033034 73 96 0.0 1.0 0.00 1.14 0.00 93 1020.3
20260831032537 74 96 0.0 1.0 0.00 1.14 0.00 93 1020.4
20260831032036 73 96 0.0 0.0 0.00 1.14 0.00 93 1020.5
20260831031536 74 96 0.0 0.0 0.00 1.22 0.00 93 1020.5
20260831031033 74 96 0.0 0.0 0.00 1.22 0.00 92 1020.5
20260831030535 74 96 0.0 1.0 0.00 1.22 0.00 92 1020.5
20260831030033 74 96 0.0 1.0 0.00 1.22 0.00 91 1020.6
20260831025034 74 96 0.0 1.0 0.00 1.22 0.00 91 1020.5
20260831024548 75 96 0.0 1.0 0.00 1.22 0.00 90 1020.5
20260831024034 75 96 0.0 0.0 0.00 1.22 0.00 90 1020.5
20260831023533 75 96 0.0 0.0 0.00 1.22 0.00 91 1020.6
20260831023032 75 96 0.0 0.0 0.00 1.22 0.00 91 1020.6
20260831022532 75 96 0.0 1.0 0.00 1.22 0.00 90 1020.5
20260831022033 75 96 0.0 1.0 0.00 1.22 0.00 90 1020.4
20260831021532 75 96 0.0 1.0 0.00 1.22 0.00 90 1020.4
20260831021033 75 96 0.0 1.0 0.00 1.22 0.00 90 1020.4
20260831020534 75 96 0.0 1.0 0.00 1.22 0.00 90 1020.4
20260831020055 75 96 0.0 1.0 0.00 1.22 0.00 90 1020.4
20260831015032 75 96 0.0 0.0 0.00 1.22 0.00 90 1020.4